Regional Weather Roundup
Issued by NWS New Orleans/Baton Rouge, LA

Home | Current Version | Previous Version | Text Only | Print | Product List | Glossary On
Versions: 1 2 3 4 5 6 7 8 9 10 11 12 13 14 15 16 17 18 19 20 21 22 23 24 25 26 27 28 29 30 31 32 33 34 35 36 37 38 39 40 41 42 43 44 45 46 47 48 49 50
000
ASUS44 KLIX 231014
RWRLIX
NEW ORLEANS REGIONAL WEATHER ROUNDUP
NATIONAL WEATHER SERVICE NEW ORLEANS LA
500 AM CDT SAT SEP 23 2017

NOTE: "FAIR" INDICATES FEW OR NO CLOUDS BELOW 12,000 FEET WITH NO
      SIGNIFICANT WEATHER AND/OR OBSTRUCTIONS TO VISIBILITY.
      SKY/WX - SKY CONDITION AND SIGNIFICANT WEATHER.
      TMP - AIR TEMPERATURE.     DP    - DEWPOINT TEMPERATURE.
      RH  - RELATIVE HUMIDITY.   PRES  - PRESSURE.
      HI  - HEAT INDEX.          WCI   - WIND CHILL INDEX.

*  THESE STATIONS ARE NOT NWS OR FAA STATIONS AND ARE NOT UNDER
   NWS QUALITY CONTROL.

LAZ038-040-048-061>063-065>067-069-231100-
SOUTHEAST LOUISIANA

CITY           SKY/WX    TMP DP  RH WIND       PRES   REMARKS
N.O. INTL ARPT PTCLDY    74  74 100 CALM      29.92S
N.O. LAKEFRONT NOT AVBL
N.O. DOWNTOWN* NOT AVBL
RESERVE*         N/A     75  73  91 CALM      29.93R FOG
SLIDELL        NOT AVBL
BATON ROUGE    CLEAR     72  70  93 CALM      29.93R
BOOTHVILLE     CLEAR     80  76  87 E3        29.92S
BELLE CHASSE   NOT AVBL
BOGALUSA*        N/A     71  67  89 CALM      29.96R
GALLIANO*        N/A     71  69  92 CALM      29.92R FOG
NEW ROADS*       N/A     70  70  98 CALM      29.93R FOG
GONZALES*        N/A     71  71  98 CALM      29.92R
HAMMOND*       CLEAR     72  68  88 CALM      29.93S
HOUMA*         NOT AVBL
PORT FOURCHON* MOSUNNY   82  73  74 E7        29.92R

$$

MSZ070-080>082-231100-
SOUTHERN MISSISSIPPI

CITY           SKY/WX    TMP DP  RH WIND       PRES   REMARKS
MCCOMB         NOT AVBL
GULFPORT       NOT AVBL
BILOXI         CLEAR     72  68  89 NE6       29.92S
PASCAGOULA     NOT AVBL

$$

COASTAL OBSERVATIONS
LAKE AND NEARSHORE STATIONS

STATION/POSITION TIME  TEMP    WIND        PRES    WAVE
                       AIR SEA DIR/SP/G            HT/PER
                 (UTC) (F)     (DEG/KT/KT) (MB)    (FT/S)
PASCAGOULA       0936   72      20/  4/  5 1013.0
WAVELAND YACHT   0936   76 84   20/  5/  5 1013.5
GRAND ISLE       0936   82 87   80/  7/ 10 1013.0
SOUTHWEST PASS   0936   83      70/  9/ 12   N/A
NEW CANAL        0936   80 83   60/  7/  8 1013.1
SHELL BEACH      0936   82 87   90/  8/  9 1013.1

OFFSHORE STATIONS

STATION/POSITION TIME  TEMP    WIND        PRES    WAVE
                       AIR SEA DIR/SP/G            HT/PER
                 (UTC) (F)     (DEG/KT/KT) (MB)    (FT/S)
64 S DAUPHIN ISL 0950   82 83   40/ 10/ 12 1012.9    1/ 4

$$




USA.gov is the U.S. government's official web portal to all federal, state and local government web resources and services.